{"data":{"norad_id":59434,"epoch":"2026-09-21T20:11:06.393408Z","epoch_age_seconds":49549,"freshness":"FRESH","line1":"1 59434U 24065P   26264.84104622  .00001100  00000+0  43706-4 0  9994","line2":"2 59434  53.1596  91.1041 0001304  99.5535 260.5615 15.34385867138957","mean_motion":15.34385867,"eccentricity":0.0001304,"inclination_deg":53.1596,"raan_deg":91.1041,"arg_perigee_deg":99.5535,"mean_anomaly_deg":260.5615,"bstar":4.3706e-5,"rev_number":13895,"period_min":93.848622499076,"perigee_km":461.85319573895,"apogee_km":463.63729782891,"semimajor_km":6840.8822467839,"source":"CELESTRAK","updated_at":"2026-09-22T09:00:48.941097Z"}}